Location: Petrozavodsk
(61.7857°N, 34.3593°E)
Time: 18:25:01
(UTC+03:00)

Terra - Visible Passes

Search period start: 24 May 2019 00:00
Search period end: 03 June 2019 00:00
Orbit: 701 x 703 km, 98.2° (Epoch: 24 May)

Date Brightness Start Highest point End Pass type
(mag) Time Alt. Az. Time Alt. Az. Time Alt. Az.
25 May 4.3 00:26:34 10° WSW 00:28:34 12° W 00:30:36 10° NW visible
25 May 3.4 23:28:42 10° SSW 23:32:47 28° W 23:36:53 10° NNW visible
27 May 4.2 00:13:24 10° WSW 00:16:08 15° W 00:18:53 10° NW visible
29 May 4.0 00:00:28 10° SW 00:03:42 18° W 00:06:58 10° NW visible
01 Jun 4.3 00:33:16 10° W 00:34:46 11° WNW 00:36:16 10° WNW visible
